Burnet, TX

5:48 AM CST on December 05, 2016 (GMT -0600)
Burnet Municipal-Craddock

Weather History for KBMQ - November, 2014

Change the Weather History Date:

Friday, November 14, 2014

  Actual Average Record
Temperature  
Mean Temperature 36 °F -  
Max Temperature 43 °F 65 °F 86 °F (2007)
Min Temperature 30 °F 47 °F 28 °F (2000)
Degree Days  
Heating Degree Days 28    
Moisture  
Dew Point 14 °F    
Average Humidity 41    
Maximum Humidity 49    
Minimum Humidity 34    
Precipitation  
Precipitation 0.00 in - - ()
Sea Level Pressure  
Sea Level Pressure 30.37 in    
Wind  
Wind Speed 5 mph (East)    
Max Wind Speed 8 mph    
Max Gust Speed -    
Visibility 10 miles    
Events      
Averages and records for this station are not official NWS values.
T = Trace of Precipitation, MM = Missing Value Source: NWS Daily Summary

Daily Weather History Graph

Daily Weather History Graph

Search for Another Location

Airport or City:

Trip Planner

Search our weather history database for the weather conditions in past years. The results will help you decide how hot, cold, wet, or windy it might be!

Date:

Astronomy

Nov. 14, 2014 Rise Set
Actual Time 6:58 AM CST 5:35 PM CST
Civil Twilight 6:33 AM CST 6:01 PM CST
Nautical Twilight 6:03 AM CST 6:30 PM CST
Astronomical Twilight 5:35 AM CST 6:59 PM CST
Moon No Moon Rise 1:00 PM CST (11/14)
Length of Visible Light 11h 28m
Length of Day
10h 37m
Waning Gibbous, 49% of the Moon is Illuminated
Nov 14
Waning Gibbous
Nov 22
New
Nov 29
First Quarter
Dec 6
Full
Dec 14
Last Quarter

Hourly Weather History & Observations

Time (CST) Temp. Windchill Dew Point Humidity Pressure Visibility Wind Dir Wind Speed Gust Speed Precip Events Conditions
12:53 AM 32.0 °F 26.4 °F 12.0 °F 44% 30.48 in 10.0 mi North 5.8 mph - N/A   Overcast
1:53 AM 32.0 °F 25.6 °F 10.0 °F 40% 30.46 in 10.0 mi NNE 6.9 mph - N/A   Overcast
2:53 AM 30.0 °F 26.5 °F 9.0 °F 41% 30.44 in 10.0 mi ENE 3.5 mph - N/A   Partly Cloudy
3:53 AM 30.0 °F 25.2 °F 10.9 °F 45% 30.44 in 10.0 mi NE 4.6 mph - N/A   Overcast
4:53 AM 30.9 °F 26.2 °F 12.0 °F 46% 30.43 in 10.0 mi NE 4.6 mph - N/A   Overcast
5:53 AM 30.9 °F 26.2 °F 10.9 °F 43% 30.44 in 10.0 mi NE 4.6 mph - N/A   Overcast
6:53 AM 30.9 °F 25.2 °F 10.0 °F 42% 30.45 in 10.0 mi NE 5.8 mph - N/A   Overcast
7:53 AM 32.0 °F 25.6 °F 10.0 °F 40% 30.46 in 10.0 mi ENE 6.9 mph - N/A   Overcast
8:53 AM 33.1 °F 26.9 °F 9.0 °F 37% 30.46 in 10.0 mi NE 6.9 mph - N/A   Overcast
9:53 AM 34.0 °F 28.8 °F 9.0 °F 35% 30.47 in 10.0 mi ESE 5.8 mph - N/A   Overcast
10:53 AM 35.1 °F 31.0 °F 10.0 °F 35% 30.45 in 10.0 mi East 4.6 mph - N/A   Overcast
11:53 AM 37.0 °F 34.5 °F 12.0 °F 36% 30.42 in 10.0 mi Variable 3.5 mph - N/A   Overcast
12:53 PM 37.9 °F 35.5 °F 12.9 °F 36% 30.37 in 10.0 mi Variable 3.5 mph - N/A   Overcast
1:53 PM 39.9 °F 36.7 °F 15.1 °F 36% 30.33 in 10.0 mi SSE 4.6 mph - N/A   Overcast
2:53 PM 43.0 °F 41.3 °F 16.0 °F 34% 30.30 in 10.0 mi NNE 3.5 mph - N/A   Mostly Cloudy
3:53 PM 43.0 °F 39.5 °F 18.0 °F 37% 30.28 in 10.0 mi Variable 5.8 mph - N/A   Overcast
4:53 PM 42.1 °F 38.4 °F 18.0 °F 38% 30.27 in 10.0 mi Variable 5.8 mph - N/A   Overcast
5:53 PM 41.0 °F 39.0 °F 18.0 °F 40% 30.27 in 10.0 mi SSE 3.5 mph - N/A   Overcast
6:53 PM 41.0 °F 37.1 °F 19.0 °F 41% 30.29 in 10.0 mi ESE 5.8 mph - N/A   Overcast
7:53 PM 39.9 °F 34.5 °F 19.0 °F 43% 30.29 in 10.0 mi ESE 8.1 mph - N/A   Overcast
8:49 PM 39.2 °F 35.0 °F 19.4 °F 45% 30.29 in 10.0 mi SSE 5.8 mph - N/A   Overcast
8:53 PM 39.9 °F 36.7 °F 19.9 °F 45% 30.30 in 10.0 mi SSE 4.6 mph - N/A   Overcast
9:53 PM 39.9 °F 35.8 °F 21.9 °F 49% 30.30 in 10.0 mi SSE 5.8 mph - N/A   Overcast
10:53 PM 39.9 °F 35.1 °F 19.9 °F 45% 30.29 in 10.0 mi South 6.9 mph - N/A   Overcast
11:53 PM 39.0 °F 36.8 °F 19.9 °F 46% 30.27 in 10.0 mi SSE 3.5 mph - N/A   Overcast